STARLINK-38003, 69720

Orbit data source: Space-Track

STARLINK-38003, 69720 is a payload satellite owned by SpaceX/Seattle (US) in SSO that was launched on Sun, 28 Jun 2026 UTC via an FALCON 9 launch vehicle from the Air Force Western Test Range (AFWTR). Payload-class satellites include a variety of spacecraft equipped with specific instruments for various scientific and technological missions. These include communications satellites like Starlink; space stations such as the ISS; scientific satellites like the Hubble; Earth observation satellites from companies like Planet Labs, Umbra, and HawkEye 360; GPS; miniature CubeSats for education and research; and military/defense satellites.

Loading next visibility...
Identifier
69720, 2026-147S
Orbit
SSO
Country
Flag of USUS
Related business
Manufacturer
SpaceX/Seattle
Mission
Operational Commercial Communications
Bus & Motor
STARLINK V2MO, Unknown motor
Mass
575 kg wet, ~530 kg dry
Launch date (UTC)
2026-06-28 (1 month ago)
Launch vehicle
FALCON 9
Launch site
Air Force Western Test Range (AFWTR)
Object type
Payload
Rocket body
Debris
Shape & HBR
Box + 1 Pan, 17.7 m
Radar Cross Section
41.120 m², Large (>1 m²)

Expand to show TLE details & history
Last TLE update: 7 hours ago

TLE from 7 hours ago
0 STARLINK-38003
1 69720U 26147S   26220.16668980 -.00032586  00000-0 -10102-2 0  9992
2 69720  97.2855 257.1793 0001952  80.7635 327.5921 15.33480391  6004
Epoch: 2026-08-08T04:00Z
TLE epoch observation values (Epoch: 2026-08-08T04:00:01.998Z)
Latitude
47.92903°
Longitude
-127.60801°
Altitude
471.865 km
Speed
7.635 km/s
True Right ascension
16h 36m 19s
True Declination
47° 45' 03"
Sunlit
Object was in daylight at epoch
Visualization orbit readout
Latitude
Unknown
Longitude
Unknown
Altitude
Unknown
Speed
Unknown
Apparent Right ascension
Unknown
Apparent Declination
Unknown
Sunlit
N/A
Visualization observer readout
Local Sidereal Time
00:55:00
Azimuth
Unknown
Elevation
Unknown
Doppler factor
Unknown
Orbital elements
Apogee altitude
463.716 km
Perigee altitude
461.045 km
Semi-major axis
6,840.518 km
Eccentricity
0.0002
Inclination
97.2855°
RAAN
257.1793°
Arg. of periapsis
80.7635°
True anomaly
327.58011°
Mean anomaly
327.5921°
Eccentric anomaly
327.5861°
Mean motion
3.83627 °/min
Orbital period
93.84 mins
BSTAR
-0.0010102
Loading maneuver chart data...
Computing Atmospheric mass density...
Loading historical data...
Loading historical data...
Loading historical data...
Loading historical data...
Loading historical data...
Loading historical data...
Loading historical data...

Documentation

Showing up to 5 results
|